Location: Cassano d�Adda
(45.5333°N, 9.5167°E)
Time: 01:25:42
(UTC+00:00)

Envisat - Pass Details

Date: 08 December 2019
Orbit: 764 x 766 km, 98.1° (Epoch: 28 January)

Event Time Altitude Azimuth Distance (km) Brightness Sun altitude
Rises 17:09:48 0° 163° (SSE) 3,219 6.2 -15.3°
Reaches altitude 10° 17:12:05 10° 163° (SSE) 2,298 5.5 -15.7°
Maximum altitude 17:17:10 87° 78° (ENE) 774 2.9 -16.6°
Drops below altitude 10° 17:22:17 10° 347° (NNW) 2,315 5.5 -17.4°
Sets 17:24:36 0° 348° (NNW) 3,246 6.2 -17.8°
